MSR912 HECA-OMDB

Flight info

Callsign MSR912
Flight time N/A
Altitude 41000
Route OBTAV L315 HGD M872 PMA Y214 RAPMA/N0522F290 Y214 RIBOT DCT ELUDA G783 ASPED Q308 RUDAT/N0476F240 M762 MIVEK P574 IMPED
Aircraft B789/H-SDE1E2E3FGHIJ2J3J4J5M1RWXY/LB1D1

Departure

Time N/A
Airport Cairo International Airport (HECA)

Arrival

Time 2026-05-05 22:37
Airport Dubai International Airport (OMDB)
Time Latitude Longitude Altitude Speed Heading
2026-05-05 19:48 27.99032 33.14191 41038 ft 512 kts 154°
2026-05-05 19:49 27.96123 33.16548 41027 ft 512 kts 154°
2026-05-05 19:49 27.90327 33.21246 41030 ft 511 kts 154°
2026-05-05 19:50 27.84583 33.25911 41027 ft 512 kts 154°
2026-05-05 19:50 27.78784 33.30603 41013 ft 513 kts 154°
2026-05-05 19:51 27.72981 33.35302 41017 ft 513 kts 154°
2026-05-05 19:51 27.67184 33.39982 41008 ft 512 kts 154°
2026-05-05 19:52 27.61381 33.44664 41007 ft 512 kts 154°
2026-05-05 19:52 27.55594 33.49327 41006 ft 511 kts 154°
2026-05-05 19:53 27.49810 33.53979 41006 ft 511 kts 154°
2026-05-05 19:53 27.44058 33.58601 41006 ft 511 kts 154°
2026-05-05 19:54 27.38250 33.63259 41009 ft 513 kts 154°
2026-05-05 19:54 27.32430 33.67925 41014 ft 512 kts 154°
2026-05-05 19:55 27.26666 33.72536 40979 ft 510 kts 155°
2026-05-05 19:55 27.20989 33.77372 41017 ft 521 kts 145°
2026-05-05 19:55 27.18518 33.80417 41018 ft 534 kts 135°
2026-05-05 19:56 27.16448 33.83946 41017 ft 547 kts 125°
2026-05-05 19:56 27.13416 33.91882 41000 ft 555 kts 118°
2026-05-05 19:57 27.10571 33.99938 40984 ft 553 kts 118°
2026-05-05 19:57 27.07710 34.07923 40982 ft 551 kts 118°
2026-05-05 19:58 27.04870 34.15887 40972 ft 551 kts 118°
2026-05-05 19:58 27.02008 34.23870 40979 ft 549 kts 119°
2026-05-05 19:59 26.99178 34.31756 40976 ft 549 kts 119°
2026-05-05 19:59 26.96320 34.39700 40972 ft 549 kts 119°
2026-05-05 20:00 26.93461 34.47631 40958 ft 549 kts 119°
2026-05-05 20:00 26.90591 34.55576 40952 ft 549 kts 119°
2026-05-05 20:01 26.87742 34.63447 40948 ft 549 kts 119°
2026-05-05 20:01 26.84866 34.71376 40953 ft 549 kts 119°
2026-05-05 20:02 26.81986 34.79300 40952 ft 549 kts 119°
2026-05-05 20:02 26.79570 34.85935 40943 ft 550 kts 119°
2026-05-05 20:03 26.76691 34.93826 40945 ft 550 kts 119°
2026-05-05 20:03 26.73792 35.01765 40953 ft 550 kts 119°
2026-05-05 20:04 26.70894 35.09685 40937 ft 550 kts 120°
2026-05-05 20:04 26.67990 35.17604 40940 ft 550 kts 120°
2026-05-05 20:05 26.65077 35.25533 40919 ft 551 kts 120°
2026-05-05 20:05 26.62180 35.33403 40938 ft 549 kts 120°
2026-05-05 20:06 26.59269 35.41292 40927 ft 549 kts 120°
2026-05-05 20:06 26.56360 35.49163 40917 ft 548 kts 120°
2026-05-05 20:07 26.53371 35.56977 40922 ft 546 kts 121°
2026-05-05 20:07 26.50380 35.64805 40922 ft 548 kts 120°
2026-05-05 20:08 26.47391 35.72631 40924 ft 549 kts 121°
2026-05-05 20:08 26.44396 35.80430 40922 ft 547 kts 120°
2026-05-05 20:09 26.41408 35.88221 40916 ft 546 kts 121°
2026-05-05 20:09 26.38412 35.95992 40913 ft 545 kts 120°
2026-05-05 20:10 26.35424 36.03750 40912 ft 545 kts 121°
2026-05-05 20:10 26.32424 36.11509 40909 ft 544 kts 121°
2026-05-05 20:11 26.29421 36.19271 40911 ft 545 kts 121°
2026-05-05 20:11 26.26410 36.27032 40906 ft 544 kts 121°
2026-05-05 20:12 26.23427 36.34712 40906 ft 543 kts 121°
2026-05-05 20:12 26.20420 36.42432 40906 ft 542 kts 121°
2026-05-05 20:13 26.17331 36.50057 40918 ft 534 kts 128°
2026-05-05 20:13 26.13743 36.57320 40914 ft 536 kts 127°
2026-05-05 20:14 26.10168 36.64596 40914 ft 536 kts 127°
2026-05-05 20:14 26.06577 36.71859 40917 ft 536 kts 127°
2026-05-05 20:15 26.02993 36.79121 40914 ft 534 kts 127°
2026-05-05 20:15 25.99414 36.86344 40917 ft 533 kts 127°
2026-05-05 20:16 25.95855 36.93525 40917 ft 533 kts 127°
2026-05-05 20:16 25.92269 37.00743 40915 ft 533 kts 127°
2026-05-05 20:17 25.88685 37.07951 40918 ft 532 kts 127°
2026-05-05 20:17 25.85109 37.15125 40917 ft 530 kts 127°
2026-05-05 20:18 25.81524 37.22308 40918 ft 532 kts 127°
2026-05-05 20:18 25.77959 37.29461 40923 ft 533 kts 127°
2026-05-05 20:19 25.74384 37.36661 40931 ft 532 kts 127°
2026-05-05 20:19 25.70793 37.43853 40945 ft 533 kts 127°
2026-05-05 20:20 25.67204 37.51049 40938 ft 533 kts 127°
2026-05-05 20:20 25.63603 37.58244 40937 ft 534 kts 127°
2026-05-05 20:21 25.60007 37.65429 40938 ft 533 kts 127°
2026-05-05 20:21 25.56400 37.72613 40919 ft 534 kts 127°
2026-05-05 20:22 25.52798 37.79789 40927 ft 532 kts 128°
2026-05-05 20:22 25.49191 37.86951 40917 ft 531 kts 128°
2026-05-05 20:23 25.45608 37.94061 40911 ft 532 kts 128°
2026-05-05 20:23 25.41994 38.01219 40907 ft 533 kts 128°
2026-05-05 20:24 25.38377 38.08374 40908 ft 533 kts 128°
2026-05-05 20:24 25.34762 38.15515 40901 ft 531 kts 128°
2026-05-05 20:25 25.31151 38.22632 40905 ft 531 kts 128°
2026-05-05 20:25 25.27540 38.29741 40907 ft 530 kts 128°
2026-05-05 20:26 25.23930 38.36837 40906 ft 530 kts 128°
2026-05-05 20:26 25.20333 38.43895 40913 ft 530 kts 128°
2026-05-05 20:27 25.16718 38.50981 40917 ft 530 kts 128°
2026-05-05 20:27 25.13091 38.58066 40914 ft 530 kts 128°
2026-05-05 20:28 25.09459 38.65152 40916 ft 529 kts 128°
2026-05-05 20:28 25.05822 38.72234 40916 ft 530 kts 128°
2026-05-05 20:29 25.02178 38.79320 40925 ft 532 kts 128°
2026-05-05 20:29 24.98550 38.86366 40930 ft 531 kts 128°
2026-05-05 20:30 24.94903 38.93438 40935 ft 529 kts 128°
2026-05-05 20:30 24.91258 39.00481 40944 ft 529 kts 128°
2026-05-05 20:31 24.87603 39.07540 40953 ft 530 kts 128°
2026-05-05 20:31 24.83939 39.14601 40935 ft 530 kts 128°
2026-05-05 20:32 24.80302 39.21604 40942 ft 531 kts 128°
2026-05-05 20:32 24.76641 39.28645 40942 ft 531 kts 128°
2026-05-05 20:33 24.72966 39.35701 40947 ft 531 kts 128°
2026-05-05 20:33 24.69295 39.42739 40946 ft 529 kts 128°
2026-05-05 20:34 24.65630 39.49753 40952 ft 529 kts 128°
2026-05-05 20:34 24.61958 39.56772 40941 ft 529 kts 127°
2026-05-05 20:35 24.58300 39.63759 40963 ft 527 kts 128°
2026-05-05 20:35 24.55135 39.71034 40986 ft 543 kts 112°
2026-05-05 20:35 24.54323 39.75114 40988 ft 554 kts 101°
2026-05-05 20:36 24.53909 39.79334 40976 ft 555 kts 101°
2026-05-05 20:36 24.53100 39.87735 40967 ft 552 kts 101°
2026-05-05 20:37 24.52293 39.96118 40971 ft 552 kts 101°
2026-05-05 20:37 24.51476 40.04507 40949 ft 552 kts 101°
2026-05-05 20:38 24.50662 40.12872 40957 ft 549 kts 101°
2026-05-05 20:38 24.49840 40.21209 40966 ft 549 kts 101°
2026-05-05 20:39 24.49023 40.29495 40967 ft 548 kts 101°
2026-05-05 20:39 24.48190 40.37868 40967 ft 548 kts 101°
2026-05-05 20:40 24.47365 40.46132 40967 ft 548 kts 101°
2026-05-05 20:40 24.46531 40.54433 40968 ft 546 kts 101°
2026-05-05 20:41 24.45693 40.62722 40966 ft 545 kts 101°
2026-05-05 20:41 24.44852 40.71000 40969 ft 546 kts 101°
2026-05-05 20:42 24.44003 40.79312 40974 ft 548 kts 102°
2026-05-05 20:42 24.43154 40.87581 40978 ft 549 kts 102°
2026-05-05 20:43 24.42294 40.95902 40974 ft 549 kts 102°
2026-05-05 20:43 24.41430 41.04225 40977 ft 549 kts 102°
2026-05-05 20:44 24.40561 41.12548 40982 ft 549 kts 102°
2026-05-05 20:44 24.39689 41.20873 40973 ft 549 kts 102°
2026-05-05 20:45 24.38371 41.33342 40974 ft 547 kts 102°
2026-05-05 20:45 24.37491 41.41627 40976 ft 546 kts 102°
2026-05-05 20:46 24.36611 41.49855 40975 ft 545 kts 102°
2026-05-05 20:46 24.35721 41.58132 40979 ft 547 kts 102°
2026-05-05 20:47 24.34828 41.66414 40982 ft 546 kts 102°
2026-05-05 20:47 24.33931 41.74674 40975 ft 545 kts 102°
2026-05-05 20:48 24.32935 41.82887 41002 ft 538 kts 110°
2026-05-05 20:48 24.30903 41.90764 40994 ft 538 kts 112°
2026-05-05 20:49 24.28827 41.98654 40990 ft 538 kts 112°
2026-05-05 20:49 24.26761 42.06509 40979 ft 534 kts 112°
2026-05-05 20:50 24.25045 42.12997 40981 ft 534 kts 112°
2026-05-05 20:50 24.22975 42.20829 40957 ft 534 kts 112°
2026-05-05 20:51 24.20574 42.29881 40974 ft 532 kts 112°
2026-05-05 20:51 24.18852 42.36360 40972 ft 532 kts 112°
2026-05-05 20:52 24.16769 42.44185 40974 ft 531 kts 112°
2026-05-05 20:52 24.14710 42.51895 40973 ft 531 kts 112°
2026-05-05 20:53 24.12631 42.59669 40979 ft 533 kts 112°
2026-05-05 20:53 24.10541 42.67465 40970 ft 532 kts 112°
2026-05-05 20:54 24.08459 42.75213 40966 ft 530 kts 112°
2026-05-05 20:54 24.06376 42.82949 40968 ft 530 kts 112°
2026-05-05 20:55 24.04288 42.90685 40971 ft 531 kts 112°
2026-05-05 20:55 24.02189 42.98444 40979 ft 532 kts 112°
2026-05-05 20:56 24.00080 43.06222 40975 ft 532 kts 112°
2026-05-05 20:56 23.97975 43.13972 40970 ft 530 kts 112°
2026-05-05 20:57 23.95875 43.21681 40971 ft 528 kts 112°
2026-05-05 20:57 23.93787 43.29330 40970 ft 529 kts 112°
2026-05-05 20:58 23.91674 43.37055 40972 ft 531 kts 112°
2026-05-05 20:58 23.89552 43.44800 40959 ft 532 kts 112°
2026-05-05 20:59 23.87431 43.52525 40950 ft 529 kts 112°
2026-05-05 20:59 23.85314 43.60213 40941 ft 528 kts 112°
2026-05-05 21:00 23.83195 43.67892 40947 ft 528 kts 112°
2026-05-05 21:00 23.81070 43.75585 40941 ft 528 kts 112°
2026-05-05 21:01 23.78945 43.83253 40917 ft 527 kts 112°
2026-05-05 21:01 23.77229 43.91037 40955 ft 534 kts 98°
2026-05-05 21:02 23.76629 43.99114 40938 ft 537 kts 98°
2026-05-05 21:02 23.76034 44.07243 40930 ft 536 kts 99°
2026-05-05 21:03 23.75420 44.15343 40948 ft 534 kts 99°
2026-05-05 21:03 23.74812 44.23470 40910 ft 538 kts 99°
2026-05-05 21:04 23.74194 44.31589 40925 ft 535 kts 99°
2026-05-05 21:04 23.73581 44.39630 40916 ft 534 kts 99°
2026-05-05 21:05 23.72959 44.47707 40916 ft 533 kts 99°
2026-05-05 21:05 23.72335 44.55762 40912 ft 532 kts 99°
2026-05-05 21:06 23.71706 44.63817 40913 ft 533 kts 99°
2026-05-05 21:06 23.71076 44.71860 40909 ft 531 kts 99°
2026-05-05 21:07 23.70440 44.79880 40899 ft 531 kts 99°
2026-05-05 21:07 23.69801 44.87920 40905 ft 531 kts 99°
2026-05-05 21:08 23.69157 44.95955 40918 ft 532 kts 99°
2026-05-05 21:08 23.68511 45.03961 40884 ft 532 kts 99°
2026-05-05 21:09 23.67862 45.11977 40895 ft 529 kts 99°
2026-05-05 21:09 23.67206 45.19978 40890 ft 529 kts 99°
2026-05-05 21:10 23.66550 45.27964 40885 ft 529 kts 99°
2026-05-05 21:10 23.65889 45.35956 40882 ft 529 kts 99°
2026-05-05 21:11 23.65222 45.43973 40879 ft 530 kts 99°
2026-05-05 21:11 23.64550 45.51989 40880 ft 531 kts 99°
2026-05-05 21:12 23.63875 45.60004 40867 ft 529 kts 99°
2026-05-05 21:12 23.63197 45.67991 40866 ft 528 kts 99°
2026-05-05 21:13 23.62515 45.75963 40861 ft 528 kts 99°
2026-05-05 21:13 23.61831 45.83918 40865 ft 529 kts 99°
2026-05-05 21:14 23.61143 45.91875 40870 ft 531 kts 99°
2026-05-05 21:14 23.60447 45.99884 40864 ft 530 kts 99°
2026-05-05 21:15 23.59902 46.06117 40872 ft 529 kts 99°
2026-05-05 21:15 23.59266 46.13345 40879 ft 528 kts 99°
2026-05-05 21:16 23.58561 46.21322 40877 ft 528 kts 99°
2026-05-05 21:16 23.57853 46.29284 40879 ft 528 kts 99°
2026-05-05 21:17 23.57140 46.37252 40890 ft 529 kts 99°
2026-05-05 21:17 23.56419 46.45268 40904 ft 531 kts 99°
2026-05-05 21:18 23.55699 46.53229 40902 ft 531 kts 99°
2026-05-05 21:18 23.54970 46.61233 40895 ft 531 kts 99°
2026-05-05 21:19 23.54237 46.69249 40899 ft 531 kts 99°
2026-05-05 21:19 23.53500 46.77256 40892 ft 530 kts 99°
2026-05-05 21:20 23.52760 46.85245 40888 ft 530 kts 99°
2026-05-05 21:20 23.52015 46.93244 40889 ft 531 kts 99°
2026-05-05 21:21 23.51264 47.01268 40881 ft 533 kts 99°
2026-05-05 21:21 23.50507 47.09314 40879 ft 534 kts 99°
2026-05-05 21:22 23.49752 47.17285 40862 ft 531 kts 99°
2026-05-05 21:22 23.48990 47.25298 40872 ft 530 kts 99°
2026-05-05 21:23 23.48223 47.33304 40867 ft 531 kts 99°
2026-05-05 21:23 23.47452 47.41315 40862 ft 532 kts 99°
2026-05-05 21:24 23.46676 47.49340 40866 ft 533 kts 99°
2026-05-05 21:24 23.45896 47.57365 40865 ft 533 kts 99°
2026-05-05 21:25 23.45112 47.65380 40859 ft 532 kts 99°
2026-05-05 21:25 23.44326 47.73381 40844 ft 529 kts 99°
2026-05-05 21:26 23.43541 47.81324 40835 ft 527 kts 99°
2026-05-05 21:26 23.42757 47.89219 40840 ft 528 kts 99°
2026-05-05 21:27 23.41964 47.97171 40833 ft 528 kts 99°
2026-05-05 21:27 23.41165 48.05133 40833 ft 530 kts 99°
2026-05-05 21:28 23.40358 48.13127 40828 ft 531 kts 99°
2026-05-05 21:28 23.39549 48.21111 40823 ft 531 kts 99°
2026-05-05 21:29 23.38738 48.29075 40814 ft 526 kts 99°
2026-05-05 21:29 23.38111 48.36946 40826 ft 526 kts 95°
2026-05-05 21:30 23.37792 48.44929 40815 ft 528 kts 95°
2026-05-05 21:30 23.37468 48.52896 40464 ft 525 kts 95°
2026-05-05 21:31 23.37306 48.56903 39564 ft 532 kts 95°
2026-05-05 21:31 23.37140 48.60908 38912 ft 531 kts 94°
2026-05-05 21:31 23.36973 48.64941 38136 ft 532 kts 94°
2026-05-05 21:31 23.36806 48.68964 37382 ft 532 kts 94°
2026-05-05 21:32 23.36639 48.72986 36616 ft 531 kts 94°
2026-05-05 21:32 23.36469 48.77001 35825 ft 531 kts 94°
2026-05-05 21:32 23.36298 48.81016 34986 ft 532 kts 94°
2026-05-05 21:32 23.36126 48.85056 34115 ft 534 kts 94°
2026-05-05 21:33 23.35952 48.89111 33149 ft 536 kts 94°
2026-05-05 21:33 23.35780 48.93105 32218 ft 535 kts 94°
2026-05-05 21:33 23.35604 48.97150 31225 ft 535 kts 94°
2026-05-05 21:33 23.35428 49.01190 30187 ft 537 kts 94°
2026-05-05 21:34 23.35249 49.05251 29124 ft 536 kts 94°
2026-05-05 21:34 23.35074 49.09255 28803 ft 520 kts 94°
2026-05-05 21:34 23.34721 49.17139 28815 ft 529 kts 94°
2026-05-05 21:35 23.34359 49.25212 28813 ft 535 kts 94°
2026-05-05 21:35 23.33992 49.33259 28811 ft 537 kts 94°
2026-05-05 21:36 23.33619 49.41376 28807 ft 537 kts 94°
2026-05-05 21:36 23.33241 49.49494 28808 ft 537 kts 94°
2026-05-05 21:37 23.32923 49.56246 28793 ft 536 kts 94°
2026-05-05 21:37 23.32540 49.64315 28792 ft 533 kts 94°
2026-05-05 21:38 23.32152 49.72392 28798 ft 535 kts 94°
2026-05-05 21:38 23.31760 49.80478 28805 ft 535 kts 94°
2026-05-05 21:39 23.31364 49.88543 28804 ft 534 kts 94°
2026-05-05 21:39 23.30965 49.96599 28800 ft 533 kts 94°
2026-05-05 21:40 23.30562 50.04639 28799 ft 532 kts 94°
2026-05-05 21:40 23.30155 50.12690 28798 ft 534 kts 94°
2026-05-05 21:41 23.29745 50.20712 28802 ft 535 kts 94°
2026-05-05 21:41 23.29328 50.28783 28791 ft 532 kts 94°
2026-05-05 21:42 23.28910 50.36809 28795 ft 531 kts 94°
2026-05-05 21:42 23.28487 50.44845 28797 ft 532 kts 94°
2026-05-05 21:43 23.28059 50.52892 28798 ft 533 kts 94°
2026-05-05 21:43 23.27627 50.60949 28799 ft 533 kts 94°
2026-05-05 21:44 23.27192 50.68981 28798 ft 532 kts 94°
2026-05-05 21:44 23.26755 50.76956 28791 ft 530 kts 94°
2026-05-05 21:45 23.26313 50.84959 28792 ft 530 kts 94°
2026-05-05 21:45 23.25867 50.92974 28792 ft 531 kts 94°
2026-05-05 21:46 23.25416 51.01000 28792 ft 532 kts 94°
2026-05-05 21:46 23.24961 51.09021 28789 ft 531 kts 95°
2026-05-05 21:47 23.24502 51.17032 28789 ft 531 kts 95°
2026-05-05 21:47 23.24035 51.25040 28792 ft 531 kts 95°
2026-05-05 21:48 23.23565 51.33055 28792 ft 530 kts 95°
2026-05-05 21:48 23.23091 51.41054 28785 ft 530 kts 95°
2026-05-05 21:49 23.22507 51.48980 28791 ft 529 kts 97°
2026-05-05 21:49 23.21885 51.56970 28795 ft 531 kts 96°
2026-05-05 21:50 23.21182 51.64972 28788 ft 531 kts 96°
2026-05-05 21:50 23.20509 51.72975 28788 ft 530 kts 96°
2026-05-05 21:51 23.19822 51.80939 28786 ft 530 kts 96°
2026-05-05 21:51 23.19134 51.88917 28794 ft 531 kts 96°
2026-05-05 21:52 23.18088 52.00926 28799 ft 532 kts 96°
2026-05-05 21:53 23.17393 52.08875 28795 ft 531 kts 96°
2026-05-05 21:53 23.16688 52.16868 28795 ft 531 kts 96°
2026-05-05 21:54 23.15978 52.24877 28793 ft 531 kts 96°
2026-05-05 21:54 23.15271 52.32800 28795 ft 530 kts 96°
2026-05-05 21:55 23.14860 52.40784 28815 ft 530 kts 85°
2026-05-05 21:55 23.16426 52.48624 28803 ft 531 kts 75°
2026-05-05 21:56 23.18315 52.56393 28802 ft 532 kts 75°
2026-05-05 21:56 23.20166 52.64192 28798 ft 533 kts 75°
2026-05-05 21:57 23.22023 52.71939 28799 ft 532 kts 75°
2026-05-05 21:57 23.23870 52.79716 28802 ft 531 kts 75°
2026-05-05 21:58 23.25722 52.87504 28799 ft 532 kts 75°
2026-05-05 21:58 23.27569 52.95301 28795 ft 533 kts 75°
2026-05-05 21:59 23.29413 53.03098 28795 ft 532 kts 75°
2026-05-05 21:59 23.31256 53.10912 28799 ft 533 kts 75°
2026-05-05 22:00 23.33095 53.18728 28799 ft 533 kts 75°
2026-05-05 22:00 23.34927 53.26533 28795 ft 533 kts 75°
2026-05-05 22:01 23.36752 53.34323 28795 ft 534 kts 75°
2026-05-05 22:01 23.38582 53.42158 28793 ft 534 kts 75°
2026-05-05 22:02 23.40405 53.49981 28790 ft 533 kts 75°
2026-05-05 22:02 23.42227 53.57817 28793 ft 533 kts 75°
2026-05-05 22:03 23.44044 53.65651 28792 ft 533 kts 75°
2026-05-05 22:03 23.45857 53.73486 28790 ft 533 kts 75°
2026-05-05 22:04 23.47653 53.81266 28786 ft 533 kts 75°
2026-05-05 22:04 23.49459 53.89109 28787 ft 534 kts 75°
2026-05-05 22:05 23.51261 53.96955 28788 ft 534 kts 75°
2026-05-05 22:05 23.53060 54.04806 28794 ft 534 kts 75°
2026-05-05 22:06 23.54856 54.12664 28794 ft 534 kts 75°
2026-05-05 22:06 23.56648 54.20525 28791 ft 534 kts 75°
2026-05-05 22:07 23.58438 54.28396 28789 ft 535 kts 75°
2026-05-05 22:07 23.60225 54.36272 28793 ft 535 kts 76°
2026-05-05 22:08 23.62005 54.44137 28793 ft 535 kts 76°
2026-05-05 22:08 23.63782 54.52010 28646 ft 537 kts 76°
2026-05-05 22:08 23.64658 54.55897 28264 ft 532 kts 76°
2026-05-05 22:09 23.65536 54.59799 27876 ft 524 kts 76°
2026-05-05 22:09 23.66402 54.63652 27496 ft 520 kts 76°
2026-05-05 22:09 23.67259 54.67468 27102 ft 516 kts 76°
2026-05-05 22:09 23.68109 54.71260 26744 ft 513 kts 76°
2026-05-05 22:10 23.68954 54.75034 26389 ft 509 kts 76°
2026-05-05 22:10 23.69791 54.78777 26041 ft 506 kts 76°
2026-05-05 22:10 23.70621 54.82494 25685 ft 502 kts 76°
2026-05-05 22:10 23.71437 54.86147 25341 ft 498 kts 76°
2026-05-05 22:11 23.72254 54.89815 25001 ft 494 kts 76°
2026-05-05 22:11 23.73064 54.93456 24657 ft 491 kts 76°
2026-05-05 22:11 23.73866 54.97061 24327 ft 487 kts 76°
2026-05-05 22:11 23.74662 55.00645 23999 ft 484 kts 76°
2026-05-05 22:12 23.75451 55.04203 23669 ft 481 kts 76°
2026-05-05 22:12 23.76237 55.07747 23339 ft 478 kts 76°
2026-05-05 22:12 23.77012 55.11248 22950 ft 475 kts 76°
2026-05-05 22:12 23.77784 55.14745 22563 ft 472 kts 76°
2026-05-05 22:13 23.78552 55.18221 22180 ft 470 kts 76°
2026-05-05 22:13 23.79316 55.21683 21797 ft 467 kts 76°
2026-05-05 22:13 23.80072 55.25118 21421 ft 464 kts 76°
2026-05-05 22:13 23.80826 55.28543 21068 ft 462 kts 76°
2026-05-05 22:14 23.81815 55.31808 20717 ft 459 kts 64°
2026-05-05 22:14 23.83452 55.34781 20364 ft 455 kts 51°
2026-05-05 22:14 23.85606 55.37293 20042 ft 452 kts 41°
2026-05-05 22:14 23.87971 55.39534 19802 ft 447 kts 38°
2026-05-05 22:15 23.90358 55.41709 19805 ft 449 kts 40°
2026-05-05 22:15 23.92634 55.44060 19808 ft 451 kts 45°
2026-05-05 22:15 23.94797 55.46549 19810 ft 450 kts 45°
2026-05-05 22:15 23.97010 55.48986 19813 ft 451 kts 43°
2026-05-05 22:16 23.99442 55.51149 19819 ft 448 kts 31°
2026-05-05 22:16 24.02177 55.52669 19820 ft 447 kts 19°
2026-05-05 22:16 24.05167 55.53536 19825 ft 444 kts
2026-05-05 22:16 24.08234 55.53862 19828 ft 443 kts
2026-05-05 22:17 24.11305 55.54143 19831 ft 443 kts
2026-05-05 22:17 24.14381 55.54423 19834 ft 443 kts
2026-05-05 22:17 24.17455 55.54717 19837 ft 445 kts
2026-05-05 22:17 24.20610 55.55020 19845 ft 465 kts
2026-05-05 22:18 24.23816 55.55324 19730 ft 453 kts
2026-05-05 22:18 24.26926 55.55618 19614 ft 448 kts
2026-05-05 22:18 24.29996 55.55908 19130 ft 438 kts
2026-05-05 22:18 24.32988 55.56192 18885 ft 421 kts
2026-05-05 22:19 24.35785 55.56459 18864 ft 396 kts
2026-05-05 22:19 24.38453 55.56713 18684 ft 377 kts
2026-05-05 22:19 24.41057 55.56957 18196 ft 374 kts
2026-05-05 22:19 24.43655 55.57240 17556 ft 375 kts
2026-05-05 22:20 24.46092 55.58254 16954 ft 377 kts 31°
2026-05-05 22:20 24.48110 55.60082 16354 ft 377 kts 44°
2026-05-05 22:20 24.49864 55.62207 15741 ft 374 kts 47°
2026-05-05 22:20 24.51580 55.64341 15088 ft 372 kts 47°
2026-05-05 22:21 24.53286 55.66462 14403 ft 369 kts 47°
2026-05-05 22:21 24.54960 55.68545 13711 ft 356 kts 47°
2026-05-05 22:21 24.56567 55.70549 13017 ft 342 kts 47°
2026-05-05 22:21 24.58099 55.72462 12516 ft 324 kts 47°
2026-05-05 22:22 24.59576 55.74257 11999 ft 309 kts 41°
2026-05-05 22:22 24.61305 55.75601 11513 ft 302 kts 29°
2026-05-05 22:22 24.63139 55.76703 11038 ft 300 kts 26°
2026-05-05 22:22 24.64982 55.77728 10571 ft 298 kts 25°
2026-05-05 22:23 24.66818 55.78723 10305 ft 291 kts 25°
2026-05-05 22:23 24.68647 55.79694 10112 ft 293 kts 25°
2026-05-05 22:23 24.70489 55.80660 9935 ft 292 kts 25°
2026-05-05 22:23 24.72295 55.81601 9747 ft 280 kts 25°
2026-05-05 22:24 24.73992 55.82481 9607 ft 257 kts 25°
2026-05-05 22:24 24.75568 55.83296 9424 ft 247 kts 25°
2026-05-05 22:24 24.77193 55.83810 9197 ft 243 kts 359°
2026-05-05 22:24 24.78764 55.83342 8972 ft 228 kts 338°
2026-05-05 22:25 24.80157 55.82626 8758 ft 215 kts 335°
2026-05-05 22:25 24.81469 55.81914 8566 ft 207 kts 335°
2026-05-05 22:25 24.82757 55.81211 8349 ft 203 kts 335°
2026-05-05 22:25 24.83986 55.80535 8086 ft 195 kts 335°
2026-05-05 22:26 24.85169 55.79881 7794 ft 191 kts 335°
2026-05-05 22:26 24.86330 55.79178 7450 ft 192 kts 329°
2026-05-05 22:26 24.87432 55.78180 7019 ft 217 kts 325°
2026-05-05 22:26 24.88755 55.77233 6885 ft 222 kts 332°
2026-05-05 22:27 24.90046 55.76433 6653 ft 209 kts 333°
2026-05-05 22:27 24.90878 55.75922 6463 ft 202 kts 333°
2026-05-05 22:27 24.92070 55.75168 6231 ft 196 kts 332°
2026-05-05 22:27 24.93246 55.74414 5984 ft 194 kts 332°
2026-05-05 22:28 24.94409 55.73670 5731 ft 193 kts 333°
2026-05-05 22:28 24.95574 55.72925 5486 ft 193 kts 333°
2026-05-05 22:28 24.96726 55.72189 5331 ft 191 kts 333°
2026-05-05 22:28 24.97875 55.71454 5184 ft 191 kts 333°
2026-05-05 22:29 24.99027 55.70717 5035 ft 191 kts 333°
2026-05-05 22:29 25.00174 55.69984 4899 ft 190 kts 333°
2026-05-05 22:29 25.01317 55.69252 4789 ft 190 kts 333°
2026-05-05 22:29 25.02461 55.68520 4706 ft 190 kts 333°
2026-05-05 22:30 25.03631 55.67772 4608 ft 199 kts 333°
2026-05-05 22:30 25.04821 55.67010 4426 ft 200 kts 333°
2026-05-05 22:30 25.06031 55.66234 4219 ft 201 kts 333°
2026-05-05 22:30 25.07230 55.65465 4127 ft 199 kts 333°
2026-05-05 22:31 25.08427 55.64656 4067 ft 204 kts 327°
2026-05-05 22:31 25.09534 55.63677 3991 ft 204 kts 324°
2026-05-05 22:31 25.10610 55.62650 3927 ft 206 kts 317°
2026-05-05 22:31 25.11462 55.61374 3832 ft 207 kts 304°
2026-05-05 22:32 25.12216 55.60017 3762 ft 207 kts 304°
2026-05-05 22:32 25.12960 55.58673 3691 ft 203 kts 304°
2026-05-05 22:32 25.13704 55.57330 3517 ft 207 kts 303°
2026-05-05 22:32 25.14452 55.55979 3262 ft 204 kts 303°
2026-05-05 22:33 25.15159 55.54699 3014 ft 193 kts 303°
2026-05-05 22:33 25.15855 55.53440 2766 ft 190 kts 303°
2026-05-05 22:33 25.16546 55.52203 2531 ft 188 kts 304°
2026-05-05 22:33 25.17206 55.51014 2296 ft 170 kts 304°
2026-05-05 22:34 25.17787 55.49961 2087 ft 156 kts 303°
2026-05-05 22:34 25.18343 55.48963 1892 ft 150 kts 304°
2026-05-05 22:34 25.18892 55.47979 1704 ft 151 kts 303°
2026-05-05 22:34 25.19435 55.47001 1525 ft 148 kts 302°
2026-05-05 22:35 25.19970 55.46033 1355 ft 148 kts 302°
2026-05-05 22:35 25.20514 55.45054 1202 ft 150 kts 302°
2026-05-05 22:35 25.21058 55.44069 1000 ft 151 kts 301°
2026-05-05 22:35 25.21599 55.43080 833 ft 151 kts 301°
2026-05-05 22:36 25.22146 55.42092 652 ft 150 kts 301°
2026-05-05 22:36 25.22684 55.41123 424 ft 143 kts 300°
2026-05-05 22:36 25.23196 55.40194 203 ft 139 kts 299°
2026-05-05 22:36 25.23682 55.39313 37 ft 131 kts 300°
2026-05-05 22:37 25.24075 55.38604 30 ft 73 kts 301°
2026-05-05 22:37 25.24222 55.38339 31 ft 29 kts 302°
2026-05-05 22:37 25.24330 55.38149 32 ft 30 kts 302°
2026-05-05 22:37 25.24442 55.37951 30 ft 31 kts 302°
2026-05-05 22:38 25.24554 55.37748 28 ft 31 kts 297°
2026-05-05 22:38 25.24609 55.37544 28 ft 22 kts 276°
2026-05-05 22:38 25.24612 55.37460 28 ft 0 kts 266°
2026-05-05 22:39 25.24612 55.37458 28 ft 1 kts 266°
2026-05-05 22:39 25.24613 55.37420 27 ft 9 kts 273°
2026-05-05 22:40 25.24618 55.37330 27 ft 13 kts 274°
2026-05-05 22:40 25.24645 55.37227 27 ft 15 kts 297°
2026-05-05 22:40 25.24701 55.37124 28 ft 16 kts 302°
2026-05-05 22:40 25.24760 55.37019 27 ft 17 kts 302°
2026-05-05 22:41 25.24812 55.36926 27 ft 16 kts 302°
2026-05-05 22:41 25.24858 55.36813 27 ft 16 kts 284°
2026-05-05 22:41 25.24886 55.36691 27 ft 17 kts 291°
2026-05-05 22:41 25.24939 55.36581 27 ft 16 kts 302°
2026-05-05 22:42 25.24999 55.36476 27 ft 16 kts 302°
2026-05-05 22:42 25.25063 55.36365 27 ft 18 kts 302°
2026-05-05 22:42 25.25129 55.36249 27 ft 17 kts 302°
2026-05-05 22:42 25.25191 55.36138 27 ft 16 kts 302°
2026-05-05 22:43 25.25250 55.36032 27 ft 16 kts 302°
2026-05-05 22:43 25.25304 55.35936 27 ft 16 kts 302°
2026-05-05 22:43 25.25362 55.35832 27 ft 15 kts 301°
2026-05-05 22:43 25.25421 55.35728 27 ft 17 kts 302°
2026-05-05 22:44 25.25486 55.35610 27 ft 19 kts 302°
2026-05-05 22:44 25.25559 55.35481 27 ft 21 kts 301°
2026-05-05 22:44 25.25627 55.35360 27 ft 18 kts 302°
2026-05-05 22:44 25.25691 55.35245 27 ft 17 kts 302°
2026-05-05 22:45 25.25750 55.35142 27 ft 16 kts 302°
2026-05-05 22:45 25.25785 55.35035 27 ft 13 kts 253°
2026-05-05 22:45 25.25748 55.34963 27 ft 10 kts 252°
2026-05-05 22:45 25.25731 55.34882 27 ft 10 kts 261°
2026-05-05 22:46 25.25723 55.34827 27 ft 4 kts 261°
2026-05-05 22:46 25.25721 55.34812 27 ft 0 kts 260°